Regional Weather Roundup
Issued by NWS

Home | Current Version | Previous Version | Text Only | Print | Product List | Glossary Off
Versions: 1 2 3 4 5 6 7 8 9 10 11 12 13 14 15 16 17 18 19 20 21 22 23 24 25 26 27 28 29 30 31 32 33 34 35 36 37 38 39 40 41 42 43 44 45 46 47 48 49 50

000
ASUS43 KMPX 260310
RWRMN
WEATHER ROUNDUP FOR MINNESOTA
NATIONAL WEATHER SERVICE TWIN CITIES/CHANHASSEN MN
900 PM CST SUN JAN 25 2015


NOTE: "FAIR" INDICATES FEW OR NO CLOUDS BELOW 12,000 FEET WITH NO
SIGNIFICANT WEATHER AND/OR OBSTRUCTIONS TO VISIBILITY. N/A MEANS
CURRENT SKY AND/OR WEATHER CONDITIONS ARE NOT AVAILABLE.

MNZ060>063-068>070-260400-
   Twin Cities Metro

CITY           SKY/WX    TMP DP  RH WIND       PRES   REMARKS
TWIN CITIES    MOCLDY    22  15  75 S6        30.04F WCI  14
ST PAUL        MOCLDY    21  15  78 S6        30.05F WCI  13
CRYSTAL        MOCLDY    23  15  71 S7        30.02F WCI  15
BLAINE         CLEAR     23  16  74 CALM      30.02F
LAKEVILLE      CLOUDY    18  16  93 S3        30.02F
EDEN PRAIRIE   CLOUDY    21  16  81 S5        30.03F WCI  15
SOUTH ST PAUL  MOCLDY    22  16  78 CALM      30.04F
LAKE ELMO      FAIR      19  14  79 CALM      30.04F
$$
MNZ001>005-007-008-013>017-022>024-027-028-260400-
   Northwest Minnesota

CITY           SKY/WX    TMP DP  RH WIND       PRES   REMARKS
BEMIDJI        CLOUDY    25  19  77 S7        29.85F WCI  17
HALLOCK        CLOUDY    25  19  80 S20       29.76F WCI  11
ROSEAU         FLURRIES  21  16  79 S14       29.79F WCI   8
WARROAD        FLURRIES  19  14  79 S8        29.80F WCI   9
THIEF RVR FALL CLOUDY    23  18  80 S13       29.86S WCI  11
CROOKSTON      CLOUDY    25  19  80 S13       29.90R WCI  13
FOSSTON        CLOUDY    21  16  79 S12       29.87F WCI   9
DETROIT LAKES  CLOUDY    25  19  80 S8        29.90F WCI  16
MOORHEAD       CLOUDY    27  25  93 S13       29.91F WCI  16
PARK RAPIDS    CLOUDY    26  20  77 SW9       29.89F WCI  17
MAHNOMEN       CLOUDY    23  18  80 S12       29.87F WCI  12
$$
MNZ006-009>011-018-025>026-260400-
   North Central Minnesota

CITY           SKY/WX    TMP DP  RH WIND       PRES   REMARKS
BAUDETTE       CLOUDY    21  14  74 S8        29.81F WCI  11
FLAG ISLAND    CLOUDY    18  12  79 S14       29.78F WCI   4
INTL FALLS     CLOUDY    22  13  68 S6        29.84F WCI  14
WASKISH        CLOUDY    21  18  86 CALM      29.85F
BIG FORK       CLOUDY    23  16  74 S8        29.87F WCI  14
LONGVILLE      CLOUDY    23  16  74 S7        29.91F WCI  15
GRAND RAPIDS   CLOUDY    19  12  73 SE10G16   29.90F WCI   8
CRANE LAKE     CLOUDY    19  12  73 S7        29.91F WCI  10
ORR            CLOUDY    19  12  73 S7        29.86F WCI  10
COOK           CLOUDY    19  12  73 S8        29.90F WCI   9
WALKER         FAIR      24  17  74 S7        29.88F WCI  16
$$
MNZ012-019>021-037-260400-
   Northeast Minnesota

CITY           SKY/WX    TMP DP  RH WIND       PRES   REMARKS
DULUTH         CLOUDY    18  12  77 S5        29.95F WCI  11
ELY            CLOUDY    16  10  79 S9        29.92F WCI   4
HIBBING        CLOUDY    19  12  74 SE9       29.91F WCI   8
EVELETH        CLOUDY    19  14  79 S9        29.93F WCI   9
DULUTH HARBOR  CLOUDY    19  12  73 CALM      30.02F
TWO HARBORS    CLOUDY    19  14  79 CALM      29.96F
SILVER BAY     FLURRIES  18  14  86 CALM      29.96F
GRAND MARAIS     N/A     18  12  77 N3        30.01F
G MARAIS ARPRT LGT SNOW   9   5  85 SE5       29.90F WCI   0
$$
MNZ029>031-032-039>041-046>048-054>057-064-260400-
   West Central Minnesota

CITY           SKY/WX    TMP DP  RH WIND       PRES   REMARKS
FERGUS FALLS   CLOUDY    25  21  86 S8        29.96F WCI  16
WHEATON        CLOUDY    25  19  80 SE8       29.97F WCI  16
MORRIS         CLOUDY    27  25  93 S8        29.95F WCI  18
ALEXANDRIA     CLOUDY    24  21  88 SW10      29.94F WCI  14
ELBOW LAKE     MOCLDY    23  22  95 S10       29.92F WCI  12
WADENA         CLOUDY    23  19  86 SW8       29.92F WCI  14
GLENWOOD       CLOUDY    25  23  93 SW8       29.96F WCI  16
APPLETON       CLOUDY    28  25  86 S6        29.97F WCI  22
BENSON         CLOUDY    27  25  93 SW5       29.98F WCI  21
ORTONVILLE     CLOUDY    27  21  80 S7        29.97F WCI  19
MADISON        CLOUDY    32  30  93 S6        29.98F WCI  26
WILLMAR        CLOUDY    28  25  86 CALM      30.00F
$$
MNZ033>034-036-042>043-049>051-058-059-260400-
   Central Minnesota

CITY           SKY/WX    TMP DP  RH WIND       PRES   REMARKS
ST CLOUD       CLOUDY    23  18  81 S5        29.99F WCI  17
SAUK CENTRE    CLOUDY    25  22  87 S7        29.97F WCI  18
PAYNESVILLE    CLOUDY    23  20  89 SE5       29.98F WCI  17
AITKIN         MOCLDY    25  16  68 CALM      29.93F
PINE RIVER     CLOUDY    23  18  80 S6        29.95F WCI  16
BRAINERD       CLOUDY    22  15  75 S7        29.95F WCI  13
STAPLES        CLOUDY    23  19  86 S5        29.93F WCI  17
LONG PRAIRIE   CLOUDY    25  21  86 S6        29.95F WCI  18
LITTLE FALLS   CLOUDY    25  18  74 S3        29.97F
LITCHFIELD     CLOUDY    25  21  86 CALM      30.00F
BUFFALO        MOCLDY    23  16  75 CALM      30.03S
MAPLE LAKE     CLOUDY    24  20  83 S3        30.02S
$$
MNZ037-044-045-052-053-260400-
   East Central Minnesota

CITY           SKY/WX    TMP DP  RH WIND       PRES   REMARKS
PRINCETON      MOCLDY    21  16  79 S3        29.99F
MORA           MOCLDY    21  14  73 S3        30.00F
CAMBRIDGE      MOCLDY    21  12  68 CALM      29.99F
RUSH CITY      MOCLDY    20  15  83 CALM      30.01F
MOOSE LAKE     PTCLDY    19  14  79 CALM      29.96F
HINCKLEY       FAIR      21  18  86 SE3       29.98F
CLOQUET        MOCLDY    16  12  86 CALM      29.96F
MCGREGOR       MOCLDY    19  16  86 CALM      29.95F
$$
MNZ071>073-080-081-089-090-097-098-260400-
   Southwest Minnesota

CITY           SKY/WX    TMP DP  RH WIND       PRES   REMARKS
MONTEVIDEO     CLOUDY    28  28 100 SW3       30.01F
GRANITE FALLS  CLOUDY    29  27  92 CALM      30.01F
CANBY          CLOUDY    29  28  94 CALM      29.99F FOG
MARSHALL       CLOUDY    27  23  86 W3        29.99F
REDWOOD FALLS  CLOUDY    30  26  85 S9        30.01F WCI  22
OLIVIA         CLOUDY    28  27  93 S7        29.99F WCI  21
PIPESTONE      CLOUDY    32  30  93 W10       29.97F WCI  24
WINDOM         CLOUDY    28  27  93 CALM      30.02F
WORTHINGTON    CLOUDY    30  27  86 S3        30.02F
JACKSON        CLOUDY    30  27  86 S3        30.03F
TRACY          CLOUDY    29  27  92 S6        29.99F WCI  23
SLAYTON        CLOUDY    29  28  96 CALM      29.99F
$$
MNZ065>067-074>077-082>085-091>093-260400-
   South Central Minnesota

CITY           SKY/WX    TMP DP  RH WIND       PRES   REMARKS
MANKATO        CLOUDY    25  18  74 S3        30.04F
NEW ULM        CLOUDY    25  19  80 CALM      30.03F
FAIRMONT       CLOUDY    28  21  74 CALM      30.04S
GLENCOE        CLOUDY    25  20  83 S5        30.00F WCI  19
FARIBAULT      MOCLDY    19  18  93 S5        30.03F WCI  13
OWATONNA       MOCLDY    21  18  86 CALM      30.02F
WASECA         PTCLDY    23  19  86 SE3       30.04F
ALBERT LEA     MOCLDY    21  19  93 CALM      30.03F
$$
MNZ078>079-086>088-094>096-260400-
   Southeast Minnesota

CITY           SKY/WX    TMP DP  RH WIND       PRES   REMARKS
ROCHESTER      CLOUDY    23  17  78 NW3       30.03F
RED WING       CLOUDY    18  12  79 CALM      30.04F
STANTON        CLOUDY    21  18  86 S3        30.01F
DODGE CENTER   CLOUDY    23  19  86 CALM      30.02F
WINONA         MOCLDY    21  18  86 CALM      30.07F
AUSTIN         CLOUDY    25  19  80 CALM      30.04S
PRESTON        CLOUDY    24  17  75 CALM      30.02F
$$
ABBREVIATIONS USED IN REMARKS
   TC - TEMPERATURES IN CELSIUS
  WCI - WIND CHILL INDEX
   HX - HEAT INDEX
  VSB - VISIBILITY
$$


USA.gov is the U.S. government's official web portal to all federal, state and local government web resources and services.